This is the latest recevied weather packets stored in our database for station/object SP1BMW-13. If no packets are shown the sender has not sent any weather packets the latest 10 day(s).
| Time | Temp. | Humidity | Pressure | Rain* | Wind** | Luminosity | Snow |
|---|---|---|---|---|---|---|---|
| 1788009393 | 25° C | 44% | 1009.6 hPa | 0 mm | 0.89 m/s, 179° | 235 W/m² | - |
| 1788009334 | 25° C | 45% | 1009.6 hPa | 0 mm | 0.45 m/s, 140° | 212 W/m² | - |
| 1788009273 | 25° C | 44% | 1009.6 hPa | 0 mm | 1.79 m/s, 255° | 199 W/m² | - |
| 1788009214 | 25° C | 43% | 1009.4 hPa | 0 mm | 0.45 m/s, 133° | 195 W/m² | - |
| 1788009153 | 25° C | 43% | 1009.4 hPa | 0 mm | 1.79 m/s, 151° | 202 W/m² | - |
| 1788009093 | 25° C | 44% | 1009.5 hPa | 0 mm | 1.79 m/s, 280° | 533 W/m² | - |
| 1788009033 | 25.56° C | 44% | 1009.6 hPa | 0 mm | 0.89 m/s, 233° | 505 W/m² | - |
| 1788008976 | 25.56° C | 44% | 1009.4 hPa | 0 mm | 1.34 m/s, 167° | 267 W/m² | - |
| 1788008914 | 25.56° C | 45% | 1009.5 hPa | 0 mm | 1.79 m/s, 298° | 369 W/m² | - |
| 1788008853 | 25.56° C | 45% | 1009.4 hPa | 0 mm | 0.45 m/s, 85° | 409 W/m² | - |
| 1788008793 | 25.56° C | 47% | 1009.5 hPa | 0 mm | 1.79 m/s, 290° | 417 W/m² | - |
| 1788008733 | 25° C | 47% | 1009.4 hPa | 0 mm | 0.89 m/s, 303° | 236 W/m² | - |
| 1788008674 | 25° C | 47% | 1009.6 hPa | 0 mm | 0.89 m/s, 229° | 492 W/m² | - |
| 1788008613 | 25° C | 46% | 1009.4 hPa | 0 mm | 1.34 m/s, 133° | 637 W/m² | - |
| 1788008553 | 25° C | 50% | 1009.5 hPa | 0 mm | 0.89 m/s, 315° | 625 W/m² | - |
| 1788008492 | 25° C | 48% | 1009.4 hPa | 0 mm | 0.89 m/s, 244° | 566 W/m² | - |
| 1788008433 | 24.44° C | 49% | 1009.4 hPa | 0 mm | 0.89 m/s, 278° | 587 W/m² | - |
| 1788008374 | 24.44° C | 48% | 1009.5 hPa | 0 mm | 2.24 m/s, 281° | 513 W/m² | - |
| 1788008312 | 24.44° C | 50% | 1009.4 hPa | 0 mm | 0.45 m/s, 216° | 607 W/m² | - |
| 1788008252 | 24.44° C | 50% | 1009.6 hPa | 0 mm | 0.45 m/s, 310° | 618 W/m² | - |
| 1788008192 | 24.44° C | 48% | 1009.5 hPa | 0 mm | 1.79 m/s, 312° | 507 W/m² | - |
| 1788008133 | 24.44° C | 48% | 1009.5 hPa | 0 mm | 1.79 m/s, 321° | 338 W/m² | - |
| 1788008073 | 24.44° C | 49% | 1009.5 hPa | 0 mm | 0.89 m/s, 271° | 406 W/m² | - |
| 1788008013 | 24.44° C | 49% | 1009.4 hPa | 0 mm | 1.79 m/s, 108° | 494 W/m² | - |
| 1788007953 | 24.44° C | 49% | 1009.5 hPa | 0 mm | 1.79 m/s, 248° | 596 W/m² | - |
* Rain latest hour (hover to see other rain measurements)
** Current wind speed in m/s (hover to see current wind gust speed)